This demonstration page uses our WeatherBlox Daily Observations layout. Learn more.

Left ArrowRight Arrow

39.08367, -84.50855

Hourly Observations for August 4, 2017

Temp ( °F °C ) Dew Point ( °F °C ) Humidity (%) Winds ( mph kmh ) Pressure ( in mb ) Visibility ( mi km ) Precip ( " mm )
12:53 am 00:53 Clear 71 21.7 67 19.4 87 87 N N/A 29.95 1014 10 16.0934 N/A
1:53 am 01:53 Clear 71 21.7 68 20 90 90 N N/A 29.94 1014 10 16.0934 N/A
2:53 am 02:53 Clear 69 20.6 67 19.4 93 93 SSW 6 9 29.93 1014 10 16.0934 N/A
3:53 am 03:53 Partly Cloudy 69 20.6 67 19.4 93 93 SW 5 7 29.93 1014 10 16.0934 N/A
4:53 am 04:53 Mostly Cloudy 71 21.7 68 20 90 90 WSW 3 6 29.92 1013 10 16.0934 N/A
5:53 am 05:53 Clear 71 21.7 68 20 90 90 SW 3 6 29.9 1013 10 16.0934 N/A
6:53 am 06:53 Sunny 71 21.7 68 20 90 90 S 9 15 29.9 1013 10 16.0934 N/A
7:53 am 07:53 Mostly Cloudy with Nearby Thunderstorms 72 22.2 68 20 87 87 SSW 12 19 29.91 1013 10 16.0934 N/A
8:53 am 08:53 Sunny 74 23.3 69 20.6 85 85 SSW 10 17 29.91 1013 10 16.0934 N/A
9:53 am 09:53 Partly Cloudy 75 23.9 70 21.1 84 84 SW 13 20 29.91 1013 10 16.0934 N/A
10:53 am 10:53 Cloudy 75 23.9 69 20.6 82 82 SW 16 26 29.92 1013 10 16.0934 N/A
11:53 am 11:53 Cloudy 74 23.3 70 21.1 88 88 SSW 15 24 29.92 1013 9 14.48406 N/A
12:53 pm 12:53 Cloudy with Light Rain 76 24.4 71 21.7 85 85 SSW 12 19 29.9 1013 7 11.26538 0.01 0.254
1:42 pm 13:42 Mostly Cloudy 77 25 68 20 74 74 WSW 10 17 29.91 1013 10 16.0934 N/A
1:53 pm 13:53 Partly Cloudy 78 25.6 68 20 71 71 W 18 30 29.89 1012 10 16.0934 N/A
2:53 pm 14:53 Mostly Cloudy 80 26.7 64 17.8 58 58 SW 20 31 29.88 1012 10 16.0934 N/A
3:53 pm 15:53 Sunny 80 26.7 59 15 49 49 W 23 37 29.89 1012 10 16.0934 N/A
4:53 pm 16:53 Partly Cloudy 79 26.1 59 15 50 50 WSW 13 20 29.89 1012 10 16.0934 N/A
5:53 pm 17:53 Partly Cloudy 77 25 56 13.3 48 48 W 22 35 29.92 1013 10 16.0934 N/A
6:53 pm 18:53 Mostly Cloudy 74 23.3 56 13.3 54 54 WNW 12 19 29.94 1014 10 16.0934 N/A
7:53 pm 19:53 Partly Cloudy 70 21.1 54 12.2 57 57 NW 15 24 29.97 1015 10 16.0934 N/A
8:53 pm 20:53 Cloudy 68 20 53 11.7 59 59 NW 9 15 30 1016 10 16.0934 N/A
9:53 pm 21:53 Cloudy 66 18.9 52 11.1 61 61 WNW 10 17 30.03 1017 10 16.0934 N/A
10:53 pm 22:53 Cloudy 65 18.3 52 11.1 63 63 W 8 13 30.04 1017 10 16.0934 N/A
11:53 pm 23:53 Mostly Clear 64 17.8 53 11.7 68 68 W 12 19 30.04 1017 10 16.0934 N/A

Powered by AerisWeather